| time (UTC) | temp F | wind direction | speed MPH | gust MPH | rain 1hr in | rain 24hr in | rain mn in | humidity % | barometer mb |
| 20260506084420 | 48 | 208 | 0.0 | 0.0 | 0.00 | 0.00 | 0.00 | 99 | 1016.6 |
| 20260506083915 | 48 | 208 | 0.0 | 0.0 | 0.00 | 0.00 | 0.00 | 99 | 1016.9 |
| 20260506083413 | 48 | 208 | 0.0 | 0.0 | 0.00 | 0.00 | 0.00 | 99 | 1016.6 |
| 20260506082910 | 48 | 208 | 0.0 | 0.0 | 0.00 | 0.00 | 0.00 | 99 | 1016.6 |
| 20260506082408 | 48 | 208 | 0.0 | 0.0 | 0.00 | 0.00 | 0.00 | 99 | 1016.6 |
| 20260506081903 | 48 | 208 | 0.0 | 0.0 | 0.00 | 0.00 | 0.00 | 99 | 1016.2 |
| 20260506081402 | 48 | 208 | 0.0 | 0.0 | 0.00 | 0.00 | 0.00 | 99 | 1016.6 |
| 20260506080858 | 48 | 208 | 0.0 | 0.0 | 0.00 | 0.00 | 0.00 | 99 | 1016.6 |
| 20260506080355 | 49 | 208 | 0.0 | 0.0 | 0.00 | 0.00 | 0.00 | 99 | 1016.6 |
| 20260506073339 | 49 | 208 | 0.0 | 0.0 | 0.00 | 0.00 | 0.00 | 99 | 1016.2 |
| 20260506072836 | 50 | 208 | 0.0 | 0.0 | 0.00 | 0.00 | 0.00 | 99 | 1016.2 |
| 20260506072334 | 50 | 208 | 0.0 | 0.0 | 0.00 | 0.00 | 0.00 | 99 | 1016.2 |
| 20260506071831 | 50 | 208 | 0.0 | 0.0 | 0.00 | 0.00 | 0.00 | 99 | 1016.2 |
| 20260506071329 | 50 | 208 | 0.0 | 0.0 | 0.00 | 0.00 | 0.00 | 99 | 1016.2 |
| 20260506070826 | 50 | 208 | 0.0 | 0.0 | 0.00 | 0.00 | 0.00 | 99 | 1016.2 |
| 20260506070323 | 50 | 208 | 0.0 | 0.0 | 0.00 | 0.00 | 0.00 | 99 | 1016.2 |
| 20260506062300 | 51 | 212 | 0.0 | 0.0 | 0.00 | 0.00 | 0.00 | 99 | 1015.4 |
| 20260506061756 | 51 | 212 | 0.0 | 0.0 | 0.00 | 0.00 | 0.00 | 99 | 1015.4 |
| 20260506061253 | 51 | 212 | 0.0 | 0.0 | 0.00 | 0.00 | 0.00 | 99 | 1015.8 |
| 20260506060751 | 51 | 211 | 0.0 | 0.0 | 0.00 | 0.00 | 0.00 | 98 | 1015.4 |
| 20260506060249 | 51 | 209 | 0.0 | 0.0 | 0.00 | 0.00 | 0.00 | 98 | 1015.8 |
| 20260506051220 | 53 | 216 | 0.0 | 0.0 | 0.00 | 0.00 | 0.00 | 96 | 1015.4 |
| 20260506050719 | 53 | 216 | 0.0 | 0.0 | 0.00 | 0.00 | 0.00 | 95 | 1015.4 |
| 20260506050215 | 54 | 216 | 0.0 | 0.0 | 0.00 | 0.00 | 0.00 | 95 | 1015.4 |
| 20260506044706 | 54 | 216 | 0.0 | 0.0 | 0.00 | 0.00 | 0.00 | 94 | 1015.1 |
| 20260506044203 | 55 | 218 | 0.0 | 0.0 | 0.00 | 0.00 | 0.00 | 95 | 1015.1 |
| 20260506043700 | 55 | 218 | 0.0 | 0.0 | 0.00 | 0.00 | 0.00 | 95 | 1015.1 |
| 20260506043158 | 55 | 217 | 0.0 | 0.0 | 0.00 | 0.00 | 0.00 | 95 | 1015.4 |
| 20260506042657 | 55 | 218 | 0.0 | 0.0 | 0.00 | 0.00 | 0.00 | 94 | 1015.1 |
| 20260506042155 | 55 | 218 | 0.0 | 0.0 | 0.00 | 0.00 | 0.00 | 93 | 1015.4 |
| 20260506041653 | 56 | 218 | 0.0 | 0.0 | 0.00 | 0.00 | 0.00 | 94 | 1015.1 |
| 20260506041149 | 56 | 218 | 0.0 | 0.0 | 0.00 | 0.00 | 0.00 | 94 | 1015.1 |
| 20260506040647 | 56 | 218 | 0.0 | 0.0 | 0.00 | 0.00 | 0.00 | 93 | 1015.1 |
| 20260506040144 | 57 | 250 | 0.0 | 0.0 | 0.00 | 0.00 | 0.00 | 92 | 1014.8 |
| 20260506035641 | 57 | 250 | 0.0 | 0.0 | 0.00 | 0.00 | 0.00 | 91 | 1015.1 |
| 20260506035137 | 57 | 250 | 0.0 | 0.0 | 0.00 | 0.00 | 0.00 | 91 | 1014.8 |
| 20260506034635 | 57 | 250 | 0.0 | 0.0 | 0.00 | 0.00 | 0.00 | 90 | 1014.8 |
| 20260506034132 | 58 | 250 | 0.0 | 0.0 | 0.00 | 0.00 | 0.00 | 91 | 1014.4 |
| 20260506033629 | 58 | 254 | 0.0 | 0.0 | 0.00 | 0.00 | 0.00 | 90 | 1014.4 |
| 20260506033126 | 58 | 261 | 0.0 | 0.0 | 0.00 | 0.00 | 0.00 | 90 | 1014.8 |
| 20260506032623 | 59 | 261 | 0.0 | 0.0 | 0.00 | 0.00 | 0.00 | 91 | 1014.4 |
| 20260506032120 | 59 | 261 | 0.0 | 0.0 | 0.00 | 0.00 | 0.00 | 89 | 1014.4 |
| 20260506031617 | 59 | 261 | 0.0 | 0.0 | 0.00 | 0.00 | 0.00 | 91 | 1014.8 |
| 20260506031114 | 59 | 262 | 0.0 | 0.0 | 0.00 | 0.00 | 0.00 | 86 | 1014.4 |
| 20260506030612 | 60 | 261 | 0.0 | 0.0 | 0.00 | 0.00 | 0.00 | 89 | 1014.8 |
| 20260506030109 | 60 | 261 | 0.0 | 0.0 | 0.00 | 0.00 | 0.00 | 90 | 1014.4 |
| 20260506025606 | 60 | 261 | 0.0 | 0.0 | 0.00 | 0.00 | 0.00 | 87 | 1014.4 |
| 20260506025102 | 61 | 262 | 0.0 | 0.0 | 0.00 | 0.00 | 0.00 | 89 | 1014.4 |
| 20260506024600 | 61 | 282 | 0.0 | 0.0 | 0.00 | 0.00 | 0.00 | 83 | 1014.4 |
| 20260506024056 | 62 | 262 | 0.0 | 0.0 | 0.00 | 0.00 | 0.00 | 84 | 1014.4 |
| 20260506023551 | 62 | 243 | 0.0 | 0.0 | 0.00 | 0.00 | 0.00 | 85 | 1014.4 |
| 20260506023049 | 62 | 238 | 0.0 | 0.0 | 0.00 | 0.00 | 0.00 | 82 | 1014.1 |
| 20260506022547 | 63 | 239 | 0.0 | 0.0 | 0.00 | 0.00 | 0.00 | 80 | 1014.4 |
| 20260506022044 | 63 | 217 | 0.0 | 0.0 | 0.00 | 0.00 | 0.00 | 78 | 1014.4 |
| 20260506021542 | 64 | 224 | 0.0 | 0.0 | 0.00 | 0.00 | 0.00 | 79 | 1014.1 |
| 20260506021039 | 64 | 297 | 1.0 | 1.0 | 0.00 | 0.00 | 0.00 | 76 | 1014.4 |
| 20260506020536 | 64 | 206 | 1.0 | 1.0 | 0.00 | 0.00 | 0.00 | 75 | 1014.4 |
| 20260506020033 | 64 | 240 | 0.0 | 0.0 | 0.00 | 0.00 | 0.00 | 78 | 1014.1 |
| 20260506015531 | 65 | 262 | 0.0 | 0.0 | 0.00 | 0.00 | 0.00 | 74 | 1014.1 |
| 20260506015027 | 65 | 217 | 0.0 | 0.0 | 0.00 | 0.00 | 0.00 | 77 | 1013.7 |
| 20260506014525 | 66 | 182 | 2.0 | 2.0 | 0.00 | 0.00 | 0.00 | 74 | 1014.4 |
| 20260506014021 | 66 | 195 | 1.0 | 1.0 | 0.00 | 0.00 | 0.00 | 72 | 1014.1 |
| 20260506013519 | 67 | 231 | 0.0 | 0.0 | 0.00 | 0.00 | 0.00 | 75 | 1014.1 |
| 20260506013015 | 68 | 230 | 0.0 | 0.0 | 0.00 | 0.00 | 0.00 | 73 | 1014.1 |
| 20260506012511 | 68 | 245 | 0.0 | 0.0 | 0.00 | 0.00 | 0.00 | 71 | 1014.1 |
| 20260506012009 | 69 | 194 | 1.0 | 1.0 | 0.00 | 0.00 | 0.00 | 73 | 1014.4 |
| 20260506011506 | 68 | 236 | 0.0 | 0.0 | 0.00 | 0.00 | 0.00 | 68 | 1014.1 |
| 20260506011002 | 68 | 327 | 0.0 | 1.0 | 0.00 | 0.00 | 0.00 | 70 | 1014.1 |
| 20260506010502 | 68 | 243 | 0.0 | 0.0 | 0.00 | 0.00 | 0.00 | 70 | 1013.7 |
| 20260506005957 | 68 | 183 | 1.0 | 1.0 | 0.00 | 0.00 | 0.00 | 69 | 1014.1 |
| 20260506005455 | 68 | 278 | 0.0 | 1.0 | 0.00 | 0.00 | 0.00 | 70 | 1014.1 |
| 20260506004950 | 68 | 210 | 1.0 | 1.0 | 0.00 | 0.00 | 0.00 | 70 | 1014.1 |
| 20260506004448 | 68 | 248 | 0.0 | 0.0 | 0.00 | 0.00 | 0.00 | 69 | 1014.1 |
| 20260506003944 | 68 | 210 | 1.0 | 1.0 | 0.00 | 0.00 | 0.00 | 71 | 1014.1 |
| 20260506003441 | 69 | 186 | 2.0 | 2.0 | 0.00 | 0.00 | 0.00 | 67 | 1014.4 |
| 20260506002937 | 68 | 218 | 1.0 | 1.0 | 0.00 | 0.00 | 0.00 | 70 | 1014.1 |
| 20260506002433 | 68 | 230 | 1.0 | 1.0 | 0.00 | 0.00 | 0.00 | 69 | 1014.1 |
| 20260506001929 | 69 | 220 | 1.0 | 1.0 | 0.00 | 0.00 | 0.00 | 67 | 1014.1 |
| 20260506001426 | 68 | 212 | 1.0 | 1.0 | 0.00 | 0.00 | 0.00 | 68 | 1014.1 |
| 20260506000923 | 69 | 168 | 2.0 | 2.0 | 0.00 | 0.00 | 0.00 | 67 | 1014.4 |
| 20260506000423 | 70 | 185 | 2.0 | 3.0 | 0.00 | 0.00 | 0.00 | 69 | 1014.1 |
| 20260505235917 | 69 | 179 | 2.0 | 2.0 | 0.00 | 0.00 | 0.00 | 66 | 1014.4 |
| 20260505235415 | 69 | 278 | 2.0 | 2.0 | 0.00 | 0.00 | 0.00 | 66 | 1014.4 |
| 20260505234912 | 68 | 239 | 1.0 | 1.0 | 0.00 | 0.00 | 0.00 | 67 | 1014.4 |
| 20260505234410 | 69 | 150 | 1.0 | 2.0 | 0.00 | 0.00 | 0.00 | 66 | 1014.4 |
| 20260505233906 | 69 | 197 | 0.0 | 1.0 | 0.00 | 0.00 | 0.00 | 66 | 1014.4 |
| 20260505233404 | 69 | 181 | 4.0 | 6.0 | 0.00 | 0.00 | 0.00 | 68 | 1014.8 |
| 20260505232901 | 68 | 178 | 2.0 | 3.0 | 0.00 | 0.00 | 0.00 | 70 | 1014.8 |
| 20260505232359 | 69 | 173 | 2.0 | 2.0 | 0.00 | 0.00 | 0.00 | 65 | 1014.4 |
| 20260505231855 | 69 | 242 | 1.0 | 2.0 | 0.00 | 0.00 | 0.00 | 68 | 1014.8 |
| 20260505231353 | 69 | 222 | 0.0 | 0.0 | 0.00 | 0.00 | 0.00 | 68 | 1014.8 |
| 20260505230851 | 68 | 236 | 1.0 | 2.0 | 0.00 | 0.00 | 0.00 | 69 | 1015.1 |
| 20260505230348 | 68 | 146 | 1.0 | 2.0 | 0.00 | 0.00 | 0.00 | 71 | 1014.8 |
| 20260505225844 | 68 | 197 | 3.0 | 3.0 | 0.00 | 0.00 | 0.00 | 69 | 1015.1 |
| 20260505225342 | 67 | 187 | 3.0 | 3.0 | 0.00 | 0.00 | 0.00 | 70 | 1015.1 |
| 20260505224837 | 68 | 140 | 3.0 | 3.0 | 0.00 | 0.00 | 0.00 | 70 | 1014.8 |
| 20260505224335 | 68 | 216 | 1.0 | 1.0 | 0.00 | 0.00 | 0.00 | 68 | 1015.1 |
| 20260505223832 | 67 | 235 | 1.0 | 1.0 | 0.00 | 0.00 | 0.00 | 70 | 1015.1 |
| 20260505223329 | 67 | 242 | 2.0 | 3.0 | 0.00 | 0.00 | 0.00 | 70 | 1015.1 |
| 20260505222824 | 67 | 188 | 8.0 | 9.0 | 0.00 | 0.00 | 0.00 | 70 | 1015.1 |
| 20260505222321 | 66 | 223 | 4.0 | 5.0 | 0.00 | 0.00 | 0.00 | 71 | 1015.1 |
| 20260505221818 | 67 | 247 | 4.0 | 5.0 | 0.00 | 0.00 | 0.00 | 69 | 1015.1 |
| 20260505221315 | 66 | 179 | 2.0 | 3.0 | 0.00 | 0.00 | 0.00 | 73 | 1015.1 |
| 20260505220812 | 68 | 280 | 1.0 | 1.0 | 0.00 | 0.00 | 0.00 | 69 | 1015.1 |
| 20260505220309 | 66 | 185 | 2.0 | 3.0 | 0.00 | 0.00 | 0.00 | 73 | 1015.1 |
| 20260505215807 | 67 | 218 | 4.0 | 5.0 | 0.00 | 0.00 | 0.00 | 72 | 1015.1 |
| 20260505215305 | 66 | 199 | 2.0 | 2.0 | 0.00 | 0.00 | 0.00 | 70 | 1015.4 |
| 20260505214802 | 65 | 196 | 3.0 | 5.0 | 0.00 | 0.00 | 0.00 | 74 | 1015.4 |
| 20260505214259 | 66 | 166 | 4.0 | 6.0 | 0.00 | 0.00 | 0.00 | 74 | 1015.4 |
| 20260505213756 | 66 | 219 | 2.0 | 2.0 | 0.00 | 0.00 | 0.00 | 72 | 1015.4 |
| 20260505213254 | 66 | 180 | 2.0 | 2.0 | 0.00 | 0.00 | 0.00 | 73 | 1015.4 |
| 20260505212749 | 66 | 220 | 3.0 | 3.0 | 0.00 | 0.00 | 0.00 | 72 | 1015.4 |
| 20260505212247 | 66 | 173 | 4.0 | 5.0 | 0.00 | 0.00 | 0.00 | 73 | 1015.4 |
| 20260505211744 | 66 | 179 | 4.0 | 5.0 | 0.00 | 0.00 | 0.00 | 71 | 1015.4 |
| 20260505211241 | 65 | 169 | 2.0 | 3.0 | 0.00 | 0.00 | 0.00 | 75 | 1015.4 |
| 20260505210737 | 65 | 235 | 4.0 | 6.0 | 0.00 | 0.00 | 0.00 | 72 | 1015.4 |
| 20260505210234 | 64 | 177 | 4.0 | 6.0 | 0.00 | 0.00 | 0.00 | 75 | 1015.4 |
| 20260505205732 | 66 | 212 | 2.0 | 2.0 | 0.00 | 0.00 | 0.00 | 73 | 1015.4 |
| 20260505205230 | 66 | 181 | 4.0 | 7.0 | 0.00 | 0.00 | 0.00 | 72 | 1015.4 |
| 20260505204726 | 66 | 153 | 6.0 | 9.0 | 0.00 | 0.00 | 0.00 | 72 | 1015.4 |
| 20260505204224 | 64 | 177 | 3.0 | 5.0 | 0.00 | 0.00 | 0.00 | 75 | 1015.4 |
| 20260505203721 | 63 | 278 | 1.0 | 1.0 | 0.00 | 0.00 | 0.00 | 76 | 1015.4 |
| 20260505203218 | 64 | 174 | 5.0 | 7.0 | 0.00 | 0.00 | 0.00 | 74 | 1015.1 |
| 20260505202713 | 65 | 169 | 4.0 | 5.0 | 0.00 | 0.00 | 0.00 | 73 | 1015.1 |
| 20260505202210 | 64 | 175 | 4.0 | 5.0 | 0.00 | 0.00 | 0.00 | 76 | 1015.4 |
| 20260505201706 | 64 | 198 | 1.0 | 1.0 | 0.00 | 0.00 | 0.00 | 75 | 1015.4 |
| 20260505201204 | 63 | 193 | 4.0 | 5.0 | 0.00 | 0.00 | 0.00 | 77 | 1015.4 |
| 20260505200702 | 64 | 154 | 3.0 | 3.0 | 0.00 | 0.00 | 0.00 | 75 | 1015.4 |
| 20260505200159 | 62 | 140 | 2.0 | 2.0 | 0.00 | 0.00 | 0.00 | 78 | 1015.4 |
| 20260505195654 | 64 | 230 | 1.0 | 1.0 | 0.00 | 0.00 | 0.00 | 75 | 1015.4 |
| 20260505195152 | 64 | 224 | 2.0 | 2.0 | 0.00 | 0.00 | 0.00 | 77 | 1015.4 |
| 20260505194649 | 63 | 235 | 0.0 | 0.0 | 0.00 | 0.00 | 0.00 | 77 | 1015.4 |
| 20260505194145 | 63 | 201 | 2.0 | 2.0 | 0.00 | 0.00 | 0.00 | 78 | 1015.4 |
| 20260505193642 | 62 | 180 | 1.0 | 1.0 | 0.00 | 0.00 | 0.00 | 80 | 1015.4 |
| 20260505193139 | 63 | 185 | 1.0 | 1.0 | 0.00 | 0.00 | 0.00 | 83 | 1015.4 |
| 20260505192638 | 62 | 213 | 3.0 | 5.0 | 0.00 | 0.00 | 0.00 | 82 | 1015.4 |
| 20260505192135 | 61 | 241 | 0.0 | 0.0 | 0.00 | 0.00 | 0.00 | 84 | 1015.4 |
| 20260505191633 | 60 | 289 | 0.0 | 0.0 | 0.00 | 0.00 | 0.00 | 84 | 1015.4 |
| 20260505191131 | 59 | 275 | 0.0 | 0.0 | 0.00 | 0.00 | 0.00 | 86 | 1015.8 |
| 20260505190626 | 59 | 192 | 1.0 | 1.0 | 0.00 | 0.00 | 0.00 | 87 | 1015.4 |
| 20260505190121 | 58 | 240 | 0.0 | 0.0 | 0.00 | 0.00 | 0.00 | 88 | 1015.8 |
| 20260505185619 | 58 | 247 | 0.0 | 0.0 | 0.00 | 0.00 | 0.00 | 90 | 1015.8 |
| 20260505185115 | 57 | 254 | 0.0 | 0.0 | 0.00 | 0.00 | 0.00 | 91 | 1015.8 |
| 20260505184611 | 57 | 267 | 0.0 | 0.0 | 0.00 | 0.00 | 0.00 | 91 | 1015.8 |
| 20260505184108 | 56 | 230 | 0.0 | 1.0 | 0.00 | 0.00 | 0.00 | 92 | 1015.8 |
| 20260505183605 | 56 | 237 | 0.0 | 0.0 | 0.00 | 0.00 | 0.00 | 92 | 1015.8 |
| 20260505183103 | 56 | 225 | 1.0 | 1.0 | 0.00 | 0.00 | 0.00 | 92 | 1015.8 |
| 20260505182559 | 56 | 244 | 0.0 | 0.0 | 0.00 | 0.00 | 0.00 | 93 | 1015.8 |
| 20260505182056 | 56 | 256 | 0.0 | 1.0 | 0.00 | 0.00 | 0.00 | 93 | 1015.8 |
| 20260505181552 | 55 | 262 | 0.0 | 0.0 | 0.00 | 0.00 | 0.00 | 94 | 1015.4 |
| 20260505181050 | 55 | 282 | 0.0 | 0.0 | 0.00 | 0.00 | 0.00 | 94 | 1015.8 |
| 20260505180545 | 55 | 187 | 2.0 | 2.0 | 0.00 | 0.00 | 0.00 | 95 | 1015.8 |
| 20260505180044 | 55 | 216 | 1.0 | 1.0 | 0.00 | 0.00 | 0.00 | 96 | 1015.4 |
| 20260505175543 | 54 | 241 | 1.0 | 2.0 | 0.00 | 0.00 | 0.00 | 96 | 1015.4 |
| 20260505175041 | 54 | 194 | 2.0 | 2.0 | 0.00 | 0.00 | 0.00 | 97 | 1015.8 |
| 20260505174538 | 55 | 226 | 1.0 | 1.0 | 0.00 | 0.00 | 0.00 | 97 | 1015.8 |
| 20260505174033 | 54 | 248 | 1.0 | 1.0 | 0.00 | 0.00 | 0.00 | 98 | 1015.4 |
| 20260505173530 | 54 | 216 | 1.0 | 2.0 | 0.00 | 0.00 | 0.00 | 98 | 1015.4 |
| 20260505173027 | 53 | 197 | 1.0 | 1.0 | 0.00 | 0.00 | 0.00 | 98 | 1015.4 |
| 20260505172525 | 53 | 164 | 2.0 | 2.0 | 0.00 | 0.00 | 0.00 | 99 | 1015.4 |
| 20260505172021 | 53 | 211 | 0.0 | 0.0 | 0.00 | 0.00 | 0.00 | 99 | 1015.4 |
| 20260505171516 | 53 | 222 | 0.0 | 0.0 | 0.00 | 0.00 | 0.00 | 99 | 1015.4 |
| 20260505171014 | 53 | 208 | 1.0 | 1.0 | 0.00 | 0.00 | 0.00 | 99 | 1015.4 |
| 20260505170510 | 53 | 198 | 1.0 | 1.0 | 0.00 | 0.00 | 0.00 | 99 | 1015.4 |
| 20260505170007 | 53 | 203 | 0.0 | 1.0 | 0.00 | 0.00 | 0.00 | 99 | 1015.4 |
| 20260505165502 | 53 | 261 | 0.0 | 0.0 | 0.00 | 0.00 | 0.00 | 99 | 1015.1 |
| 20260505164958 | 53 | 268 | 0.0 | 0.0 | 0.00 | 0.00 | 0.00 | 99 | 1015.1 |
| 20260505164454 | 52 | 131 | 2.0 | 3.0 | 0.00 | 0.00 | 0.00 | 99 | 1015.1 |
| 20260505163952 | 52 | 152 | 1.0 | 2.0 | 0.00 | 0.00 | 0.00 | 99 | 1015.1 |
| 20260505163450 | 53 | 161 | 1.0 | 1.0 | 0.00 | 0.00 | 0.00 | 99 | 1015.1 |
| 20260505162950 | 53 | 237 | 0.0 | 0.0 | 0.00 | 0.00 | 0.00 | 99 | 1015.1 |
| 20260505162445 | 53 | 231 | 0.0 | 0.0 | 0.00 | 0.00 | 0.00 | 99 | 1015.1 |
| 20260505161942 | 52 | 233 | 0.0 | 0.0 | 0.00 | 0.00 | 0.00 | 99 | 1015.1 |
| 20260505161438 | 53 | 194 | 1.0 | 1.0 | 0.00 | 0.00 | 0.00 | 99 | 1015.1 |
| 20260505160936 | 52 | 276 | 0.0 | 1.0 | 0.00 | 0.00 | 0.00 | 99 | 1015.1 |
| 20260505160434 | 52 | 201 | 1.0 | 1.0 | 0.00 | 0.00 | 0.00 | 99 | 1015.1 |
| 20260505152910 | 52 | 217 | 0.0 | 0.0 | 0.00 | 0.00 | 0.00 | 99 | 1014.8 |
| 20260505152403 | 51 | 247 | 0.0 | 0.0 | 0.00 | 0.00 | 0.00 | 99 | 1014.8 |
| 20260505151901 | 52 | 245 | 0.0 | 0.0 | 0.00 | 0.00 | 0.00 | 99 | 1014.4 |
| 20260505151358 | 52 | 231 | 0.0 | 0.0 | 0.00 | 0.00 | 0.00 | 99 | 1014.8 |
| 20260505150855 | 51 | 223 | 0.0 | 0.0 | 0.00 | 0.00 | 0.00 | 99 | 1014.8 |
| 20260505150352 | 52 | 201 | 0.0 | 0.0 | 0.00 | 0.00 | 0.00 | 99 | 1014.8 |
| 20260505140317 | 51 | 213 | 0.0 | 0.0 | 0.00 | 0.00 | 0.00 | 99 | 1014.1 |
| 20260505130240 | 51 | 213 | 0.0 | 1.0 | 0.00 | 0.00 | 0.00 | 99 | 1013.4 |
| 20260505124731 | 51 | 232 | 0.0 | 0.0 | 0.00 | 0.00 | 0.00 | 99 | 1013.1 |
| 20260505124228 | 51 | 232 | 0.0 | 0.0 | 0.00 | 0.00 | 0.00 | 99 | 1013.4 |
| 20260505123723 | 51 | 233 | 0.0 | 0.0 | 0.00 | 0.00 | 0.00 | 99 | 1013.1 |
| 20260505123220 | 51 | 231 | 0.0 | 0.0 | 0.00 | 0.00 | 0.00 | 99 | 1013.1 |
| 20260505122717 | 50 | 231 | 0.0 | 0.0 | 0.00 | 0.00 | 0.00 | 99 | 1013.4 |
| 20260505122214 | 50 | 231 | 0.0 | 0.0 | 0.00 | 0.00 | 0.00 | 99 | 1013.4 |
| 20260505121710 | 50 | 231 | 0.0 | 0.0 | 0.00 | 0.00 | 0.00 | 99 | 1013.1 |
| 20260505121207 | 50 | 232 | 0.0 | 0.0 | 0.00 | 0.00 | 0.00 | 99 | 1013.1 |
| 20260505120703 | 50 | 230 | 0.0 | 0.0 | 0.00 | 0.00 | 0.00 | 99 | 1013.1 |
| 20260505120159 | 50 | 236 | 0.0 | 0.0 | 0.00 | 0.00 | 0.00 | 99 | 1013.1 |
| 20260505115653 | 50 | 236 | 0.0 | 0.0 | 0.00 | 0.00 | 0.00 | 99 | 1013.1 |
| 20260505115151 | 50 | 229 | 0.0 | 0.0 | 0.00 | 0.00 | 0.00 | 99 | 1013.1 |
| 20260505114648 | 50 | 209 | 0.0 | 0.0 | 0.00 | 0.00 | 0.00 | 99 | 1013.1 |
| 20260505114144 | 50 | 211 | 0.0 | 0.0 | 0.00 | 0.00 | 0.00 | 99 | 1013.1 |
| 20260505113640 | 50 | 212 | 0.0 | 0.0 | 0.00 | 0.00 | 0.00 | 99 | 1013.1 |
| 20260505113137 | 49 | 212 | 0.0 | 0.0 | 0.00 | 0.00 | 0.00 | 99 | 1013.1 |
| 20260505112633 | 49 | 212 | 0.0 | 0.0 | 0.00 | 0.00 | 0.00 | 99 | 1013.1 |
| 20260505112132 | 49 | 212 | 0.0 | 0.0 | 0.00 | 0.00 | 0.00 | 99 | 1013.1 |
| 20260505111631 | 49 | 212 | 0.0 | 0.0 | 0.00 | 0.00 | 0.00 | 99 | 1012.7 |
| 20260505111127 | 49 | 212 | 0.0 | 0.0 | 0.00 | 0.00 | 0.00 | 99 | 1012.7 |
| 20260505110624 | 48 | 212 | 0.0 | 0.0 | 0.00 | 0.00 | 0.00 | 99 | 1012.7 |
| 20260505110121 | 48 | 212 | 0.0 | 0.0 | 0.00 | 0.00 | 0.00 | 99 | 1012.7 |
| 20260505102057 | 48 | 212 | 0.0 | 0.0 | 0.00 | 0.00 | 0.00 | 99 | 1012.4 |
| 20260505101555 | 48 | 212 | 0.0 | 0.0 | 0.00 | 0.00 | 0.00 | 99 | 1012.4 |
| 20260505101051 | 48 | 212 | 0.0 | 0.0 | 0.00 | 0.00 | 0.00 | 99 | 1012.4 |
| 20260505100548 | 49 | 212 | 0.0 | 0.0 | 0.00 | 0.00 | 0.00 | 99 | 1012.4 |
| 20260505100045 | 48 | 212 | 0.0 | 0.0 | 0.00 | 0.00 | 0.00 | 99 | 1012.4 |
| 20260505095541 | 48 | 212 | 0.0 | 0.0 | 0.00 | 0.00 | 0.00 | 99 | 1012.4 |
| 20260505095037 | 48 | 212 | 0.0 | 0.0 | 0.00 | 0.00 | 0.00 | 99 | 1012.4 |
| 20260505094534 | 49 | 212 | 0.0 | 0.0 | 0.00 | 0.00 | 0.00 | 99 | 1012.7 |
| 20260505094030 | 49 | 212 | 0.0 | 0.0 | 0.00 | 0.00 | 0.00 | 99 | 1012.4 |
| 20260505093527 | 49 | 212 | 0.0 | 0.0 | 0.00 | 0.00 | 0.00 | 99 | 1012.4 |
| 20260505093024 | 49 | 212 | 0.0 | 0.0 | 0.00 | 0.00 | 0.00 | 99 | 1012.4 |
| 20260505092521 | 49 | 212 | 0.0 | 0.0 | 0.00 | 0.00 | 0.00 | 99 | 1012.4 |
| 20260505092020 | 49 | 212 | 0.0 | 0.0 | 0.00 | 0.00 | 0.00 | 99 | 1012.4 |
| 20260505091516 | 49 | 212 | 0.0 | 0.0 | 0.00 | 0.00 | 0.00 | 99 | 1012.4 |
| 20260505091014 | 49 | 212 | 0.0 | 0.0 | 0.00 | 0.00 | 0.00 | 99 | 1012.4 |
| 20260505090512 | 49 | 212 | 0.0 | 0.0 | 0.00 | 0.00 | 0.00 | 99 | 1012.4 |
| 20260505090010 | 49 | 212 | 0.0 | 0.0 | 0.00 | 0.00 | 0.00 | 99 | 1012.4 |
| 20260505085508 | 50 | 212 | 0.0 | 0.0 | 0.00 | 0.00 | 0.00 | 99 | 1012.4 |
| 20260505085006 | 50 | 212 | 0.0 | 0.0 | 0.00 | 0.00 | 0.00 | 99 | 1012.4 |